Location: N�rnberg
(49.4489°N, 11.0797°E)
Time: 00:18:37
(UTC+02:00)

Tiangong 2 - Visible Passes

Search period start: 24 May 2018 00:00
Search period end: 03 June 2018 00:00
Orbit: 382 x 385 km, 42.8° (Epoch: 23 May)

Date Brightness Start Highest point End Pass type
(mag) Time Alt. Az. Time Alt. Az. Time Alt. Az.
24 May 2.6 23:11:26 10° WSW 23:13:17 22° SSW 23:13:17 22° SSW visible
25 May 2.4 22:11:52 10° SW 22:14:26 23° S 22:16:23 14° SE visible
25 May 3.6 23:48:13 10° WSW 23:48:35 12° WSW 23:48:35 12° WSW visible
26 May 2.4 22:48:26 10° WSW 22:51:00 23° S 22:51:30 22° S visible
27 May 2.4 21:48:44 10° WSW 21:51:22 24° S 21:53:59 10° ESE visible
27 May 3.2 23:25:25 10° WSW 23:26:31 15° SW 23:26:31 15° SW visible
28 May 2.7 22:25:29 10° WSW 22:27:54 20° SSW 22:29:18 16° SSE visible
29 May 3.3 23:02:55 10° SW 23:04:13 12° SSW 23:04:13 12° SSW visible
30 May 3.0 22:02:38 10° WSW 22:04:45 17° SSW 22:06:51 10° SSE visible
